Date String (YYYY-MM-DD hh:mm:ss) UTC,Instrument flags,absolute air pressure of the measurement (hPa),sample flow rate (lpm),inlet stack bypass flow (lpm),air temperature of the measurement (°C),ambient temperature measured by the external sensor (°C),aerosol sample conditioner tube jacket temperature (°C),OPC LED temperature (°C),internal box temperature (°C),relative humidity of the measurement (%),span deviation,mass concentration of particles derived from Lorenz-Mie calculation of OPC scattering (μg/m³),mass concentration of particles derived from Lorenz-Mie calculation of OPC scattering (μg/m³),mass concentration of particles derived from Lorenz-Mie calculation of OPC scattering (μg/m³)
DateTimeUTC,F1_M11,P_M11,Q1_M11,Q2_M11,T1_M11,T2_M11,T3_M11,T4_M11,T5_M11,U1_M11,ZSPAN_M11,X0_M11,X2_M11,X1_M11
2024-06-16 20:00:00,SystemResetWarning,0823.9,5.00,000.00,029.2,028.8,000.0,037.3,031.1,025.2,0000.0,0025.08,0006.47,0004.62
2024-06-16 20:01:00,SystemResetWarning,0823.9,5.01,000.00,029.3,028.9,000.0,037.4,031.2,025.0,0000.0,0025.30,0006.43,0004.63
2024-06-16 20:02:00,SystemResetWarning,0823.9,4.98,000.00,029.4,029.1,000.0,037.4,031.3,025.2,0000.0,0025.21,0006.38,0004.65
2024-06-16 20:03:00,SystemResetWarning,0824.0,5.00,000.00,029.5,029.0,000.0,037.5,031.3,025.5,0000.0,0025.41,0006.44,0004.66
2024-06-16 20:04:00,SystemResetWarning,0823.9,5.00,000.00,029.3,027.3,000.0,037.5,030.5,025.8,0000.0,0024.45,0006.43,0004.68
2024-06-16 20:05:00,SystemResetWarning,0823.8,5.02,000.00,029.0,026.6,000.0,037.6,030.1,025.6,0000.0,0024.61,0006.43,0004.71
2024-06-16 20:06:00,SystemResetWarning,0823.8,5.00,000.00,029.0,026.9,000.0,037.5,030.2,025.7,0000.0,0023.98,0006.45,0004.73
2024-06-16 20:07:00,SystemResetWarning,0823.8,4.99,000.00,029.0,027.3,000.0,037.5,030.5,025.7,0000.0,0023.34,0006.46,0004.76
2024-06-16 20:08:00,SystemResetWarning,0823.8,5.00,000.00,029.1,027.6,000.0,037.4,030.7,026.1,0000.0,0023.61,0006.47,0004.79
2024-06-16 20:09:00,SystemResetWarning,0823.9,5.01,000.00,029.1,028.0,000.0,037.4,030.8,025.4,0000.0,0023.39,0006.55,0004.80
2024-06-16 20:10:00,SystemResetWarning,0823.8,5.00,000.00,029.2,028.3,000.0,037.4,030.9,025.4,0000.0,0023.60,0006.53,0004.80
2024-06-16 20:11:00,SystemResetWarning,0823.8,4.99,000.00,029.3,028.5,000.0,037.4,031.1,025.3,0000.0,0022.44,0006.50,0004.81
2024-06-16 20:12:00,SystemResetWarning,0823.8,5.00,000.00,029.3,028.7,000.0,037.5,031.2,025.2,0000.0,0022.49,0006.62,0004.83
2024-06-16 20:13:00,SystemResetWarning,0823.8,5.00,000.00,029.4,028.9,000.0,037.5,031.3,025.6,0000.0,0022.10,0006.66,0004.82
2024-06-16 20:14:00,SystemResetWarning,0823.8,4.99,000.00,029.5,029.0,000.0,037.5,031.3,026.3,0000.0,0021.61,0006.65,0004.83
2024-06-16 20:15:00,SystemResetWarning,0823.8,4.98,000.00,029.4,027.7,000.0,037.6,030.6,026.5,0000.0,0020.68,0006.67,0004.83
2024-06-16 20:16:00,SystemResetWarning,0823.8,5.02,000.00,029.0,025.7,000.0,037.6,029.7,026.4,0000.0,0019.85,0006.67,0004.83
2024-06-16 20:17:00,SystemResetWarning,0823.8,5.01,000.00,028.7,025.7,000.0,037.6,029.6,026.6,0000.0,0019.58,0006.61,0004.83
2024-06-16 20:18:00,SystemResetWarning,0823.8,4.99,000.00,028.7,026.2,000.0,037.5,029.8,026.6,0000.0,0019.24,0006.61,0004.83
2024-06-16 20:19:00,SystemResetWarning,0823.8,4.99,000.00,028.7,026.6,000.0,037.4,030.1,026.5,0000.0,0018.91,0006.63,0004.83
2024-06-16 20:20:00,SystemResetWarning,0823.8,5.01,000.00,028.8,027.1,000.0,037.3,030.3,026.8,0000.0,0018.59,0006.58,0004.82
2024-06-16 20:21:00,SystemResetWarning,0823.8,5.01,000.00,028.8,027.5,000.0,037.3,030.5,026.0,0000.0,0017.33,0006.55,0004.82
2024-06-16 20:22:00,SystemResetWarning,0823.7,4.99,000.00,028.9,027.8,000.0,037.3,030.6,025.9,0000.0,0017.99,0006.62,0004.84
2024-06-16 20:23:00,SystemResetWarning,0823.7,5.00,000.00,029.0,028.1,000.0,037.3,030.8,026.3,0000.0,0019.33,0006.60,0004.85
2024-06-16 20:24:00,SystemResetWarning,0823.7,5.00,000.00,029.1,028.4,000.0,037.3,030.9,025.7,0000.0,0020.45,0006.57,0004.85
2024-06-16 20:25:00,SystemResetWarning,0823.6,5.00,000.00,029.1,028.6,000.0,037.3,031.0,025.8,0000.0,0020.89,0006.55,0004.85
2024-06-16 20:26:00,SystemResetWarning,0823.6,5.01,000.00,029.2,028.8,000.0,037.4,031.1,025.6,0000.0,0022.16,0006.58,0004.85
2024-06-16 20:27:00,SystemResetWarning,0823.7,5.00,000.00,029.3,028.9,000.0,037.4,031.2,026.1,0000.0,0023.02,0006.60,0004.87
2024-06-16 20:28:00,SystemResetWarning,0823.7,5.00,000.00,029.4,029.1,000.0,037.4,031.3,025.8,0000.0,0022.80,0006.60,0004.86
2024-06-16 20:29:00,SystemResetWarning,0823.8,4.99,000.00,029.4,028.5,000.0,037.5,031.0,025.2,0000.0,0022.14,0006.61,0004.86
2024-06-16 20:30:00,SystemResetWarning,0823.7,5.00,000.00,029.1,026.2,000.0,037.6,029.9,025.3,0000.0,0021.19,0006.68,0004.87
2024-06-16 20:31:00,SystemResetWarning,0823.6,5.01,000.00,028.7,025.4,000.0,037.6,029.5,025.6,0000.0,0021.00,0006.77,0004.89
2024-06-16 20:32:00,SystemResetWarning,0823.7,4.99,000.00,028.6,025.9,000.0,037.5,029.7,025.4,0000.0,0021.43,0006.87,0004.92
2024-06-16 20:33:00,SystemResetWarning,0823.7,4.99,000.00,028.6,026.4,000.0,037.4,029.9,025.9,0000.0,0021.73,0006.87,0004.93
2024-06-16 20:34:00,SystemResetWarning,0823.8,5.01,000.00,028.7,026.9,000.0,037.3,030.2,026.3,0000.0,0020.77,0006.89,0004.94
2024-06-16 20:35:00,SystemResetWarning,0823.8,5.01,000.00,028.7,027.3,000.0,037.3,030.4,026.3,0000.0,0019.80,0006.91,0004.96
2024-06-16 20:36:00,SystemResetWarning,0823.8,5.00,000.00,028.8,027.7,000.0,037.2,030.6,025.6,0000.0,0021.11,0006.99,0004.98
2024-06-16 20:37:00,SystemResetWarning,0823.8,5.00,000.00,028.9,028.0,000.0,037.2,030.7,025.3,0000.0,0020.34,0006.96,0004.99
2024-06-16 20:38:00,SystemResetWarning,0823.8,5.00,000.00,029.0,028.3,000.0,037.3,030.8,025.2,0000.0,0019.62,0006.97,0005.01
2024-06-16 20:39:00,SystemResetWarning,0823.8,5.00,000.00,029.1,028.5,000.0,037.3,031.0,025.6,0000.0,0020.40,0007.03,0005.04
2024-06-16 20:40:00,SystemResetWarning,0823.8,5.00,000.00,029.2,028.7,000.0,037.3,031.1,025.3,0000.0,0021.34,0007.09,0005.07
2024-06-16 20:41:00,SystemResetWarning,0823.7,5.00,000.00,029.2,028.9,000.0,037.4,031.2,025.1,0000.0,0021.88,0007.07,0005.08
2024-06-16 20:42:00,SystemResetWarning,0823.7,5.00,000.00,029.3,029.0,000.0,037.4,031.3,025.0,0000.0,0022.21,0007.01,0005.09
2024-06-16 20:43:00,SystemResetWarning,0823.7,5.01,000.00,029.4,029.0,000.0,037.4,031.3,025.2,0000.0,0024.07,0006.98,0005.10
2024-06-16 20:44:00,SystemResetWarning,0823.6,4.98,000.00,029.3,027.1,000.0,037.5,030.4,025.3,0000.0,0025.22,0006.94,0005.09
2024-06-16 20:45:00,SystemResetWarning,0823.5,5.02,000.00,028.8,025.4,000.0,037.5,029.5,026.2,0000.0,0026.21,0006.89,0005.10
2024-06-16 20:46:00,SystemResetWarning,0823.5,5.01,000.00,028.7,025.7,000.0,037.5,029.6,027.1,0000.0,0028.77,0006.88,0005.10
2024-06-16 20:47:00,SystemResetWarning,0823.5,4.98,000.00,028.6,026.2,000.0,037.4,029.8,026.2,0000.0,0027.53,0006.84,0005.11
2024-06-16 20:48:00,SystemResetWarning,0823.5,5.00,000.00,028.7,026.7,000.0,037.3,030.1,025.5,0000.0,0027.25,0006.86,0005.13
2024-06-16 20:49:00,SystemResetWarning,0823.5,5.01,000.00,028.7,027.1,000.0,037.2,030.3,025.5,0000.0,0027.65,0006.92,0005.13
2024-06-16 20:50:00,SystemResetWarning,0823.6,5.00,000.00,028.8,027.5,000.0,037.2,030.5,025.5,0000.0,0027.98,0006.96,0005.13
2024-06-16 20:51:00,SystemResetWarning,0823.5,4.99,000.00,028.9,027.9,000.0,037.2,030.6,025.1,0000.0,0028.50,0006.93,0005.13
2024-06-16 20:52:00,SystemResetWarning,0823.5,5.00,000.00,028.9,028.2,000.0,037.2,030.8,025.2,0000.0,0028.14,0006.90,0005.13
2024-06-16 20:53:00,SystemResetWarning,0823.5,5.00,000.00,029.0,028.4,000.0,037.3,030.9,025.4,0000.0,0027.74,0006.93,0005.12
2024-06-16 20:54:00,SystemResetWarning,0823.6,5.00,000.00,029.1,028.6,000.0,037.3,031.0,025.4,0000.0,0026.87,0006.92,0005.12
2024-06-16 20:55:00,SystemResetWarning,0823.5,5.00,000.00,029.2,028.8,000.0,037.3,031.1,024.9,0000.0,0025.41,0006.98,0005.12
2024-06-16 20:56:00,SystemResetWarning,0823.6,5.00,000.00,029.3,029.0,000.0,037.4,031.2,024.7,0000.0,0025.37,0007.05,0005.11
2024-06-16 20:57:00,SystemResetWarning,0823.6,5.00,000.00,029.4,029.1,000.0,037.4,031.3,024.5,0000.0,0024.25,0007.10,0005.11
2024-06-16 20:58:00,SystemResetWarning,0823.5,4.98,000.00,029.4,028.1,000.0,037.5,030.8,024.7,0000.0,0024.55,0007.09,0005.09
2024-06-16 20:59:00,SystemResetWarning,0823.5,5.01,000.00,029.0,025.8,000.0,037.5,029.8,025.7,0000.0,0024.83,0007.11,0005.07
